| time (UTC) | temp C | wind direction | speed KPH | gust KPH | rain 1hr cm | rain 24hr cm | rain mn cm | humidity % | barometer mb |
| 20260510224526 | 15 | 308 | 4.8 | 12.9 | 0.00 | 0.00 | 0.00 | 32 | 1016.0 |
| 20260510223025 | 15 | 292 | 3.2 | 12.9 | 0.00 | 0.00 | 0.00 | 31 | 1015.8 |
| 20260510221525 | 15 | 279 | 9.7 | 19.3 | 0.00 | 0.00 | 0.00 | 29 | 1015.8 |
| 20260510220023 | 15 | 298 | 4.8 | 20.9 | 0.00 | 0.00 | 0.00 | 30 | 1015.6 |
| 20260510214522 | 16 | 276 | 4.8 | 14.5 | 0.00 | 0.00 | 0.00 | 31 | 1015.6 |
| 20260510213025 | 15 | 285 | 6.4 | 14.5 | 0.00 | 0.00 | 0.00 | 32 | 1015.3 |
| 20260510211524 | 15 | 283 | 1.6 | 17.7 | 0.00 | 0.00 | 0.00 | 32 | 1015.2 |
| 20260510210021 | 15 | 280 | 4.8 | 16.1 | 0.00 | 0.00 | 0.00 | 31 | 1015.2 |
| 20260510204536 | 16 | 325 | 6.4 | 16.1 | 0.00 | 0.00 | 0.00 | 30 | 1015.1 |
| 20260510203023 | 15 | 292 | 6.4 | 12.9 | 0.00 | 0.00 | 0.00 | 29 | 1015.1 |
| 20260510201518 | 15 | 295 | 4.8 | 12.9 | 0.00 | 0.00 | 0.00 | 30 | 1015.3 |
| 20260510200018 | 15 | 328 | 6.4 | 17.7 | 0.00 | 0.00 | 0.00 | 31 | 1015.4 |
| 20260510194521 | 15 | 271 | 0.0 | 16.1 | 0.00 | 0.05 | 0.00 | 30 | 1015.5 |
| 20260510193016 | 14 | 302 | 3.2 | 12.9 | 0.00 | 0.05 | 0.00 | 31 | 1015.6 |
| 20260510191525 | 15 | 327 | 3.2 | 9.7 | 0.00 | 0.05 | 0.00 | 30 | 1015.7 |
| 20260510190028 | 14 | 271 | 8.0 | 17.7 | 0.00 | 0.05 | 0.00 | 31 | 1015.8 |
| 20260510184513 | 15 | 275 | 3.2 | 27.4 | 0.00 | 0.05 | 0.00 | 30 | 1015.6 |
| 20260510183010 | 15 | 232 | 4.8 | 14.5 | 0.00 | 0.05 | 0.00 | 30 | 1015.5 |
| 20260510181530 | 14 | 283 | 8.0 | 17.7 | 0.00 | 0.05 | 0.00 | 32 | 1015.3 |
| 20260510180013 | 14 | 336 | 11.3 | 19.3 | 0.00 | 0.05 | 0.00 | 32 | 1015.3 |
| 20260510174507 | 14 | 263 | 6.4 | 20.9 | 0.00 | 0.05 | 0.00 | 31 | 1015.3 |
| 20260510173011 | 13 | 271 | 6.4 | 20.9 | 0.00 | 0.05 | 0.00 | 33 | 1015.3 |
| 20260510171505 | 14 | 321 | 3.2 | 6.4 | 0.00 | 0.05 | 0.00 | 31 | 1015.3 |
| 20260510170003 | 13 | 306 | 3.2 | 14.5 | 0.00 | 0.05 | 0.00 | 31 | 1015.4 |
| 20260510164500 | 13 | 330 | 6.4 | 20.9 | 0.00 | 0.05 | 0.00 | 31 | 1015.5 |
| 20260510163106 | 13 | 320 | 6.4 | 19.3 | 0.00 | 0.05 | 0.00 | 33 | 1015.4 |
| 20260510161558 | 13 | 269 | 11.3 | 22.5 | 0.00 | 0.05 | 0.00 | 34 | 1015.3 |
| 20260510160057 | 13 | 306 | 6.4 | 17.7 | 0.00 | 0.05 | 0.00 | 34 | 1015.2 |
| 20260510154554 | 13 | 355 | 4.8 | 20.9 | 0.00 | 0.05 | 0.00 | 36 | 1015.1 |
| 20260510153055 | 13 | 296 | 8.0 | 22.5 | 0.00 | 0.05 | 0.00 | 37 | 1014.9 |
| 20260510151558 | 12 | 311 | 1.6 | 17.7 | 0.00 | 0.05 | 0.00 | 39 | 1014.8 |
| 20260510150049 | 12 | 281 | 9.7 | 17.7 | 0.00 | 0.05 | 0.00 | 36 | 1014.7 |
| 20260510144552 | 12 | 303 | 3.2 | 12.9 | 0.00 | 0.05 | 0.00 | 41 | 1014.6 |
| 20260510143047 | 11 | 288 | 6.4 | 12.9 | 0.00 | 0.05 | 0.00 | 41 | 1014.5 |
| 20260510141547 | 11 | 31 | 3.2 | 9.7 | 0.00 | 0.05 | 0.00 | 41 | 1014.4 |
| 20260510140046 | 10 | 279 | 6.4 | 12.9 | 0.00 | 0.05 | 0.00 | 45 | 1014.3 |
| 20260510134552 | 10 | 360 | 0.0 | 8.0 | 0.00 | 0.05 | 0.00 | 47 | 1014.3 |
| 20260510133045 | 10 | 317 | 0.0 | 6.4 | 0.00 | 0.05 | 0.00 | 48 | 1014.3 |
| 20260510131543 | 10 | 346 | 0.0 | 8.0 | 0.00 | 0.05 | 0.00 | 49 | 1014.2 |
| 20260510130042 | 10 | 360 | 1.6 | 8.0 | 0.00 | 0.05 | 0.00 | 47 | 1014.0 |
| 20260510124541 | 10 | 15 | 0.0 | 6.4 | 0.00 | 0.05 | 0.00 | 49 | 1013.9 |
| 20260510123038 | 9 | 348 | 0.0 | 4.8 | 0.00 | 0.05 | 0.00 | 49 | 1013.7 |
| 20260510121537 | 8 | 348 | 0.0 | 4.8 | 0.00 | 0.05 | 0.00 | 52 | 1013.5 |
| 20260510120037 | 7 | 348 | 0.0 | 4.8 | 0.00 | 0.05 | 0.00 | 55 | 1013.4 |
| 20260510114534 | 7 | 346 | 3.2 | 6.4 | 0.00 | 0.05 | 0.00 | 56 | 1013.2 |
| 20260510113031 | 6 | 360 | 0.0 | 6.4 | 0.00 | 0.05 | 0.00 | 49 | 1013.0 |
| 20260510111535 | 5 | 355 | 0.0 | 0.0 | 0.00 | 0.05 | 0.00 | 38 | 1012.7 |
| 20260510110035 | 5 | 355 | 0.0 | 1.6 | 0.00 | 0.05 | 0.00 | 30 | 1012.5 |
| 20260510104524 | 5 | 355 | 0.0 | 0.0 | 0.00 | 0.05 | 0.00 | 38 | 1012.4 |
| 20260510103021 | 5 | 355 | 0.0 | 0.0 | 0.00 | 0.05 | 0.00 | 46 | 1012.2 |
| 20260510101517 | 5 | 355 | 0.0 | 0.0 | 0.00 | 0.05 | 0.00 | 54 | 1011.9 |
| 20260510100013 | 6 | 355 | 0.0 | 0.0 | 0.00 | 0.05 | 0.00 | 57 | 1011.7 |
| 20260510094513 | 6 | 355 | 0.0 | 0.0 | 0.00 | 0.05 | 0.00 | 58 | 1011.7 |
| 20260510093009 | 7 | 355 | 0.0 | 1.6 | 0.00 | 0.05 | 0.00 | 58 | 1011.7 |
| 20260510091505 | 7 | 360 | 0.0 | 6.4 | 0.00 | 0.05 | 0.00 | 58 | 1011.4 |
| 20260510090002 | 7 | 360 | 0.0 | 8.0 | 0.00 | 0.05 | 0.00 | 57 | 1011.1 |
| 20260510084601 | 7 | 18 | 0.0 | 1.6 | 0.00 | 0.05 | 0.00 | 57 | 1010.8 |
| 20260510083101 | 8 | 12 | 4.8 | 12.9 | 0.00 | 0.05 | 0.00 | 56 | 1010.3 |
| 20260510081550 | 8 | 360 | 0.0 | 9.7 | 0.00 | 0.05 | 0.00 | 56 | 1010.0 |
| 20260510080046 | 8 | 16 | 1.6 | 9.7 | 0.00 | 0.05 | 0.00 | 56 | 1009.5 |
| 20260510074556 | 8 | 360 | 1.6 | 12.9 | 0.00 | 0.05 | 0.00 | 56 | 1009.0 |
| 20260510073046 | 8 | 21 | 3.2 | 6.4 | 0.00 | 0.05 | 0.00 | 56 | 1008.8 |
| 20260510071545 | 9 | 360 | 0.0 | 8.0 | 0.00 | 0.05 | 0.00 | 56 | 1008.5 |
| 20260510070034 | 9 | 360 | 0.0 | 0.0 | 0.00 | 0.05 | 0.00 | 54 | 1008.1 |
| 20260510064531 | 9 | 360 | 0.0 | 0.0 | 0.00 | 0.05 | 0.00 | 54 | 1008.1 |
| 20260510063029 | 10 | 360 | 0.0 | 0.0 | 0.00 | 0.05 | 0.00 | 55 | 1008.1 |
| 20260510061527 | 10 | 360 | 0.0 | 0.0 | 0.00 | 0.05 | 0.00 | 56 | 1007.9 |
| 20260510060030 | 10 | 360 | 0.0 | 0.0 | 0.00 | 0.05 | 0.00 | 55 | 1007.9 |
| 20260510054526 | 10 | 360 | 0.0 | 0.0 | 0.00 | 0.05 | 0.00 | 56 | 1007.7 |
| 20260510053020 | 10 | 360 | 0.0 | 0.0 | 0.00 | 0.05 | 0.00 | 56 | 1007.4 |
| 20260510051523 | 11 | 360 | 0.0 | 0.0 | 0.00 | 0.05 | 0.00 | 56 | 1007.1 |
| 20260510050013 | 11 | 360 | 0.0 | 0.0 | 0.00 | 0.05 | 0.00 | 56 | 1006.6 |
| 20260510044518 | 12 | 360 | 0.0 | 0.0 | 0.00 | 0.05 | 0.00 | 54 | 1006.5 |
| 20260510043007 | 12 | 360 | 0.0 | 0.0 | 0.00 | 0.05 | 0.00 | 52 | 1006.2 |
| 20260510041502 | 13 | 322 | 0.0 | 4.8 | 0.00 | 0.05 | 0.00 | 51 | 1006.1 |
| 20260510040100 | 13 | 360 | 0.0 | 8.0 | 0.00 | 0.05 | 0.00 | 50 | 1006.0 |
| 20260510034555 | 13 | 360 | 1.6 | 9.7 | 0.00 | 0.05 | 0.05 | 48 | 1005.8 |
| 20260510033055 | 14 | 360 | 3.2 | 9.7 | 0.00 | 0.05 | 0.05 | 47 | 1005.5 |
| 20260510031546 | 15 | 360 | 3.2 | 16.1 | 0.00 | 0.05 | 0.05 | 45 | 1005.3 |
| 20260510030048 | 15 | 360 | 3.2 | 17.7 | 0.00 | 0.05 | 0.05 | 44 | 1004.9 |
| 20260510024549 | 15 | 360 | 8.0 | 20.9 | 0.00 | 0.05 | 0.05 | 43 | 1004.7 |
| 20260510023034 | 16 | 360 | 6.4 | 25.7 | 0.00 | 0.05 | 0.05 | 43 | 1004.4 |
| 20260510021534 | 16 | 360 | 4.8 | 12.9 | 0.00 | 0.05 | 0.05 | 46 | 1003.8 |
| 20260510020034 | 16 | 323 | 1.6 | 9.7 | 0.00 | 0.05 | 0.05 | 49 | 1003.4 |
| 20260510014532 | 16 | 284 | 0.0 | 4.8 | 0.00 | 0.05 | 0.05 | 51 | 1002.9 |
| 20260510013033 | 16 | 279 | 0.0 | 0.0 | 0.00 | 0.05 | 0.05 | 50 | 1002.3 |
| 20260510011537 | 17 | 281 | 0.0 | 0.0 | 0.00 | 0.05 | 0.05 | 46 | 1001.8 |
| 20260510010037 | 17 | 281 | 0.0 | 0.0 | 0.00 | 0.05 | 0.05 | 43 | 1001.6 |
| 20260510004529 | 18 | 282 | 0.0 | 8.0 | 0.00 | 0.05 | 0.05 | 41 | 1001.4 |
| 20260510003032 | 18 | 281 | 3.2 | 11.3 | 0.00 | 0.05 | 0.05 | 39 | 1001.3 |
| 20260510001529 | 19 | 360 | 6.4 | 14.5 | 0.00 | 0.05 | 0.05 | 38 | 1001.1 |
| 20260510000028 | 20 | 285 | 8.0 | 27.4 | 0.00 | 0.05 | 0.05 | 36 | 1000.9 |
| 20260509234528 | 20 | 277 | 9.7 | 17.7 | 0.00 | 0.05 | 0.05 | 34 | 1000.8 |
| 20260509233027 | 20 | 285 | 9.7 | 29.0 | 0.00 | 0.05 | 0.05 | 34 | 1000.6 |
| 20260509231531 | 20 | 304 | 8.0 | 32.2 | 0.00 | 0.05 | 0.05 | 34 | 1000.6 |
| 20260509230019 | 20 | 294 | 14.5 | 41.8 | 0.00 | 0.05 | 0.05 | 33 | 1000.5 |